Flight Track Log - Related Links

Times and Time Zones

All times are in EDT time to prevent confusion due to time zone crossing. See the ASH2877 flight status page for this flight to view local times or setup timezone preferences in your user account.

Time Position Orientation Groundspeed Altitude Reporting Facility
EDT Latitude Longitude Course Direction KTS MPH feet Rate Location/Type
Fri 03:25:31 PM 33.4333 -111.9833 180° South 157 181 1,900  Level Phoenix TRACON
Fri 03:26:37 PM 33.4333 -111.9000 90° East 238 274 3,600 1,697 Climbing Phoenix TRACON
Fri 03:27:10 PM 33.4358 -111.8669 85° East 258 297 4,700 2,526 Climbing Albuquerque Center
Fri 03:28:12 PM 33.3731 -111.8578 173° South 273 314 7,600 2,855 Climbing Albuquerque Center
Fri 03:29:00 PM 33.0595 -111.9357 168° South  Level FlightAware Approximate
Fri 03:29:14 PM 33.3139 -111.9153 219° Southwest 272 313 10,600  Level Albuquerque Center
Fri 03:30:00 PM 32.9668 -111.9167 180° South  Level FlightAware Approximate
Fri 03:30:16 PM 33.2361 -111.9422 196° South 314 361 12,700  Level Albuquerque Center
Fri 03:31:18 PM 33.1258 -111.9303 175° South 327 376 15,700 2,064 Climbing Albuquerque Center
Fri 03:32:21 PM 33.0244 -111.9206 175° South 361 415 17,000 624 Climbing Albuquerque Center
Fri 03:33:23 PM 32.9319 -111.8642 153° Southeast 391 450 17,000  Level Albuquerque Center
Fri 03:34:25 PM 32.8536 -111.7753 136° Southeast 392 451 17,000 -290 Level Albuquerque Center
Fri 03:35:27 PM 32.7772 -111.6881 136° Southeast 387 445 16,400 -1,452 Descending Albuquerque Center
Fri 03:36:29 PM 32.6875 -111.5839 136° Southeast 376 433 14,000 -1,976 Descending Albuquerque Center
Fri 03:36:49 PM 32.6606 -111.5600 143° Southeast 362 417 13,700 -774 Descending Albuquerque Center
Fri 03:37:31 PM 32.6189 -111.5086 134° Southeast 343 395 13,200 -1,000 Descending Albuquerque Center
Fri 03:37:43 PM 32.6028 -111.4919 139° Southeast 334 384 12,800 -1,161 Descending Albuquerque Center
Fri 03:38:33 PM 32.5544 -111.4347 135° Southeast 329 379 12,000 -1,252 Descending Albuquerque Center
Fri 03:39:38 PM 32.4803 -111.3553 138° Southeast 315 362 10,400 -1,355 Descending Albuquerque Center
Fri 03:40:37 PM 32.4322 -111.2964 134° Southeast 304 350 9,200 -1,091 Descending Albuquerque Center
Fri 03:41:39 PM 32.3769 -111.2364 137° Southeast 282 325 8,200 -1,018 Descending Albuquerque Center
Fri 03:42:29 PM 32.3219 -111.1781 138° Southeast 266 306 7,300 -871 Descending Albuquerque Center
Fri 03:42:41 PM 32.3128 -111.1644 129° Southeast 270 311 7,300 -1,091 Level Albuquerque Center
Fri 03:43:35 PM 32.2594 -111.1092 139° Southeast 267 307 6,100 -936 Descending Albuquerque Center
Fri 03:44:30 PM 32.2208 -111.0642 135° Southeast 232 267 5,600 -686 Descending Albuquerque Center
Fri 03:44:45 PM 32.2153 -111.0511 117° Southeast 245 282 5,300 -1,475 Descending Albuquerque Center
Fri 03:45:31 PM 32.1789 -111.0150 140° Southeast 201 231 4,100 -1,355 Descending Albuquerque Center
Fri 03:45:47 PM 32.1769 -111.0067 105° East 215 247 3,900 -787 Descending Albuquerque Center
Fri 03:46:32 PM 32.1483 -110.9781 140° Southeast 162 186 3,300 -800 Descending Albuquerque Center

Login

Don't have an account? Register now (free) for customized features, flight alerts, and more!